When you browse on this site, cookies collect data to enhance your experience and personalize the content and advertising you see.
Visit our Privacy Policy to learn more. By continuing to use the site, you agree to this use of cookies and data.
  • In United Kingdom
  • List of Countries
  • For 7 days
  • Water Temperature
  • Weather Map
  • Weather Widgets
  • user-avatar
    Login

    Hourly Weather Bingley

    Today, 27 February, Thursday

    Time Temperature Precipitation Wind Pressure Humidity
    00:00 0°C° 0 mm 4 mps 733 mmHg 86%
    01:00 0°C° 0.5 mm 4 mps 732 mmHg 89%
    02:00 0°C° 0.5 mm 3 mps 732 mmHg 91%
    03:00 0°C° 0.5 mm 3 mps 731 mmHg 94%
    04:00 0°C° 0.8 mm 3 mps 731 mmHg 95%
    05:00 +1°C° 0.8 mm 2 mps 731 mmHg 96%
    06:00 +1°C° 0.8 mm 2 mps 731 mmHg 97%
    07:00 0°C° 0.2 mm 3 mps 731 mmHg 94%
    08:00 +1°C° 0.2 mm 3 mps 731 mmHg 91%
    09:00 0°C° 0.2 mm 4 mps 731 mmHg 88%
    10:00 0°C° 0 mm 5 mps 732 mmHg 81%
    11:00 +1°C° 0 mm 5 mps 732 mmHg 75%
    12:00 +2°C° 0 mm 6 mps 733 mmHg 69%
    13:00 +2°C° 0 mm 6 mps 734 mmHg 68%
    14:00 +2°C° 0 mm 7 mps 734 mmHg 67%
    15:00 +2°C° 0 mm 7 mps 735 mmHg 66%
    16:00 0°C° 0 mm 7 mps 735 mmHg 69%
    17:00 +1°C° 0 mm 6 mps 736 mmHg 71%
    18:00 -1°C° 0 mm 6 mps 737 mmHg 73%
    19:00 0°C° 0 mm 5 mps 738 mmHg 75%
    20:00 0°C° 0 mm 5 mps 738 mmHg 77%
    21:00 -1°C° 0 mm 4 mps 739 mmHg 79%
    22:00 -1°C° 0 mm 4 mps 739 mmHg 80%
    23:00 -1°C° 0 mm 4 mps 740 mmHg 81%

    Tomorrow, 28 February, Friday

    Time Temperature Precipitation Wind Pressure Humidity
    00:00 -1°C° 0 mm 4 mps 740 mmHg 82%
    01:00 0°C° 0 mm 3 mps 740 mmHg 82%
    02:00 0°C° 0 mm 3 mps 739 mmHg 82%
    03:00 0°C° 0 mm 3 mps 739 mmHg 82%
    04:00 0°C° 0 mm 3 mps 739 mmHg 81%
    05:00 0°C° 0 mm 3 mps 738 mmHg 81%
    06:00 0°C° 0 mm 3 mps 738 mmHg 80%
    07:00 -1°C° 0 mm 4 mps 737 mmHg 81%
    08:00 0°C° 0 mm 5 mps 737 mmHg 83%
    09:00 0°C° 0 mm 5 mps 736 mmHg 84%
    10:00 -1°C° 1 mm 6 mps 734 mmHg 88%
    11:00 -1°C° 1 mm 7 mps 733 mmHg 92%
    12:00 -2°C° 1 mm 8 mps 731 mmHg 96%
    13:00 -1°C° 1.3 mm 6 mps 730 mmHg 96%
    14:00 +1°C° 1.3 mm 5 mps 728 mmHg 96%
    15:00 +3°C° 1.3 mm 4 mps 727 mmHg 96%
    16:00 +3°C° 1 mm 5 mps 726 mmHg 96%
    17:00 +5°C° 1 mm 5 mps 725 mmHg 96%
    18:00 +6°C° 1 mm 5 mps 725 mmHg 96%
    19:00 +6°C° 0.7 mm 5 mps 724 mmHg 96%
    20:00 +6°C° 0.7 mm 5 mps 723 mmHg 95%
    21:00 +6°C° 0.7 mm 5 mps 723 mmHg 95%
    22:00 +7°C° 0.7 mm 5 mps 722 mmHg 94%
    23:00 +7°C° 0.7 mm 6 mps 721 mmHg 94%

    Day after tomorrow, 29 February, Saturday

    Time Temperature Precipitation Wind Pressure Humidity
    00:00 +7°C° 0.7 mm 6 mps 720 mmHg 93%
    01:00 +6°C° 0.3 mm 7 mps 719 mmHg 92%
    02:00 +8°C° 0.3 mm 7 mps 717 mmHg 90%
    03:00 +7°C° 0.3 mm 8 mps 716 mmHg 89%
    04:00 +7°C° 0.7 mm 8 mps 715 mmHg 89%
    05:00 +6°C° 0.7 mm 8 mps 714 mmHg 89%
    06:00 +6°C° 0.7 mm 8 mps 713 mmHg 89%
    07:00 +4°C° 0.4 mm 8 mps 713 mmHg 85%
    08:00 +2°C° 0.4 mm 9 mps 713 mmHg 81%
    09:00 0°C° 0.4 mm 10 mps 713 mmHg 77%
    10:00 +1°C° 0 mm 10 mps 713 mmHg 71%
    11:00 +1°C° 0 mm 10 mps 714 mmHg 65%
    12:00 +1°C° 0 mm 10 mps 714 mmHg 59%
    13:00 +1°C° 0.2 mm 10 mps 713 mmHg 59%
    14:00 +1°C° 0.2 mm 10 mps 713 mmHg 59%
    15:00 +1°C° 0.2 mm 10 mps 712 mmHg 59%
    16:00 -1°C° 0.6 mm 11 mps 710 mmHg 68%
    17:00 -2°C° 0.6 mm 11 mps 709 mmHg 78%
    18:00 -2°C° 0.6 mm 12 mps 707 mmHg 88%
    19:00 -2°C° 2.1 mm 12 mps 707 mmHg 88%
    20:00 -1°C° 2.1 mm 12 mps 706 mmHg 88%
    21:00 0°C° 2.1 mm 13 mps 705 mmHg 89%
    22:00 0°C° 1.7 mm 12 mps 705 mmHg 88%
    23:00 +1°C° 1.7 mm 11 mps 706 mmHg 88%

    1 March, Sunday

    Time Temperature Precipitation Wind Pressure Humidity
    00:00 +1°C° 1.7 mm 11 mps 706 mmHg 88%
    01:00 +1°C° 1.4 mm 11 mps 706 mmHg 86%
    02:00 -1°C° 1.4 mm 11 mps 707 mmHg 85%
    03:00 -1°C° 1.4 mm 11 mps 707 mmHg 84%
    04:00 -1°C° 1.6 mm 12 mps 708 mmHg 86%
    05:00 -1°C° 1.6 mm 13 mps 708 mmHg 88%
    06:00 -1°C° 1.6 mm 14 mps 709 mmHg 90%
    07:00 -1°C° 2.5 mm 13 mps 710 mmHg 91%
    08:00 -1°C° 2.5 mm 12 mps 711 mmHg 92%
    09:00 -2°C° 2.5 mm 11 mps 712 mmHg 93%
    10:00 -1°C° 1.7 mm 12 mps 713 mmHg 91%
    11:00 -1°C° 1.7 mm 13 mps 714 mmHg 88%
    12:00 -1°C° 1.7 mm 14 mps 715 mmHg 86%
    13:00 0°C° 0.3 mm 13 mps 715 mmHg 84%
    14:00 0°C° 0.3 mm 13 mps 716 mmHg 82%
    15:00 0°C° 0.3 mm 12 mps 716 mmHg 81%
    16:00 0°C° 0.4 mm 13 mps 717 mmHg 79%
    17:00 -1°C° 0.4 mm 13 mps 717 mmHg 78%
    18:00 -1°C° 0.4 mm 14 mps 717 mmHg 77%
    19:00 -1°C° 0.8 mm 13 mps 718 mmHg 81%
    20:00 -2°C° 0.8 mm 11 mps 719 mmHg 86%
    21:00 -2°C° 0.8 mm 10 mps 719 mmHg 90%
    22:00 -2°C° 0.5 mm 10 mps 720 mmHg 90%
    23:00 -1°C° 0.5 mm 9 mps 721 mmHg 91%

    2 March, Monday

    Time Temperature Precipitation Wind Pressure Humidity
    00:00 -1°C° 0.5 mm 8 mps 722 mmHg 91%
    01:00 -1°C° 0.1 mm 8 mps 722 mmHg 91%
    02:00 -1°C° 0.1 mm 8 mps 722 mmHg 91%
    03:00 -2°C° 0.1 mm 7 mps 722 mmHg 92%
    04:00 -2°C° 0.2 mm 7 mps 723 mmHg 92%
    05:00 -2°C° 0.2 mm 7 mps 723 mmHg 93%
    06:00 -2°C° 0.2 mm 6 mps 724 mmHg 93%
    07:00 -1°C° 0.2 mm 6 mps 724 mmHg 93%
    08:00 -1°C° 0.2 mm 6 mps 725 mmHg 93%
    09:00 -1°C° 0.2 mm 6 mps 725 mmHg 92%
    10:00 -1°C° 0.2 mm 6 mps 726 mmHg 92%
    11:00 +1°C° 0.2 mm 6 mps 726 mmHg 91%
    12:00 +1°C° 0.2 mm 6 mps 727 mmHg 91%
    13:00 +1°C° 0.1 mm 5 mps 727 mmHg 91%
    14:00 +1°C° 0.1 mm 5 mps 728 mmHg 90%
    15:00 +1°C° 0.1 mm 5 mps 728 mmHg 90%
    16:00 +1°C° 0.1 mm 5 mps 729 mmHg 89%
    17:00 0°C° 0.1 mm 5 mps 729 mmHg 88%
    18:00 0°C° 0.1 mm 5 mps 730 mmHg 88%
    19:00 0°C° 0 mm 4 mps 731 mmHg 88%
    20:00 0°C° 0 mm 4 mps 732 mmHg 88%
    21:00 -1°C° 0 mm 4 mps 732 mmHg 89%
    22:00 0°C° 0 mm 3 mps 733 mmHg 88%
    23:00 0°C° 0 mm 3 mps 733 mmHg 88%

    3 March, Tuesday

    Time Temperature Precipitation Wind Pressure Humidity
    00:00 -1°C° 0 mm 3 mps 734 mmHg 88%
    01:00 -1°C° 0 mm 3 mps 734 mmHg 87%
    02:00 -1°C° 0 mm 3 mps 734 mmHg 87%
    03:00 -1°C° 0 mm 3 mps 734 mmHg 87%
    04:00 -1°C° 0 mm 3 mps 734 mmHg 87%
    05:00 -1°C° 0 mm 3 mps 734 mmHg 87%
    06:00 -1°C° 0 mm 2 mps 734 mmHg 87%
    07:00 -1°C° 0 mm 3 mps 735 mmHg 86%
    08:00 0°C° 0 mm 3 mps 735 mmHg 84%
    09:00 0°C° 0 mm 4 mps 735 mmHg 82%
    10:00 +1°C° 0 mm 4 mps 735 mmHg 78%
    11:00 +1°C° 0 mm 4 mps 735 mmHg 75%
    12:00 +3°C° 0 mm 4 mps 735 mmHg 71%
    13:00 +3°C° 0 mm 4 mps 735 mmHg 70%
    14:00 +3°C° 0 mm 3 mps 734 mmHg 69%
    15:00 +4°C° 0 mm 3 mps 734 mmHg 67%
    16:00 +4°C° 0 mm 2 mps 734 mmHg 71%
    17:00 +3°C° 0 mm 1 mps 734 mmHg 75%
    18:00 +2°C° 0 mm 1 mps 734 mmHg 80%
    19:00 +2°C° 0 mm 1 mps 734 mmHg 81%
    20:00 +2°C° 0 mm 1 mps 735 mmHg 82%
    21:00 +1°C° 0 mm 1 mps 735 mmHg 83%
    22:00 +1°C° 0 mm 1 mps 735 mmHg 84%
    23:00 +1°C° 0 mm 1 mps 735 mmHg 85%
    Show more